EHI
18 11 4 2 1 0 0 0 0 0 0 0 0 0 0 0 0 0 0 0 0 0 0 0 0 0 0 0 0 0 0 0 0 0 0 0 0 0 0 0 0 0 0
17 10 4 1 0 0 0 0 0 0 0 0 0 0 0 0 0 0 0 0 0 0 0 0 0 0 0 0 0 0 0 0 0 0 0 0 0 0 0 0 0 0 0
16 10 3 1 0 0 0 0 0 0 0 0 0 0 0 0 0 0 0 0 0 0 0 0 0 0 0 0 0 0 0 0 0 0 0 0 0 0 0 0 0 0 0
16 10 3 0 0 0 0 0 0 0 0 0 0 0 0 0 0 0 0 0 0 0 0 0 0 0 0 0 0 0 0 0 0 0 0 0 0 0 0 0 0 0 0
20 11 2 0 0 0 0 0 0 0 0 0 0 0 0 0 0 0 0 0 0 0 0 0 0 0 0 0 0 0 0 0 0 0 0 0 0 0 0 0 0 0 0
20 10 1 0 0 0 0 0 0 0 0 0 0 0 0 0 0 0 0 0 0 0 0 0 0 0 0 0 0 0 0 0 0 0 0 0 0 0 0 0 0 0 0
12 6 0 0 0 0 0 0 0 0 0 0 0 0 0 0 0 0 0 0 0 0 0 0 0 0 0 0 0 0 0 0 0 0 0 0 0 0 0 0 0 0 0
6 2 0 0 0 0 0 0 0 0 0 0 0 0 0 0 0 0 0 0 0 0 0 0 0 0 0 0 0 0 0 0 0 0 0 0 0 0 0 0 0 0 0
3 1 0 0 0 0 0 0 0 0 0 0 0 0 0 0 0 0 0 0 0 0 0 0 0 0 0 0 0 0 0 0 0 0 0 0 0 0 0 0 0 0 0
2 1 0 0 0 0 0 0 0 0 0 0 0 0 0 0 0 0 0 0 0 0 0 0 0 0 0 0 0 0 0 0 0 0 0 0 0 0 0 0 0 0 0
1 0 0 0 0 0 0 0 0 0 0 0 0 0 0 0 0 0 0 0 0 0 0 0 0 0 0 0 0 0 0 0 0 0 0 0 0 0 0 0 0 0 0
0 0 0 0 0 0 0 0 0 0 0 0 0 0 0 0 0 0 0 0 0 0 0 0 0 0 0 0 0 0 0 0 0 0 0 0 0 0 0 0 0 0 0
0 0 0 0 0 0 0 0 0 0 0 0 0 0 0 0 0 0 0 0 0 0 0 0 0 0 0 0 0 0 0 0 0 0 0 0 0 0 0 0 0 0 0
0 0 0 0 0 0 0 0 0 0 0 0 0 0 0 0 0 0 0 0 0 0 0 0 0 0 0 0 0 0 0 0 0 0 0 0 0 0 0 0 0 0 0
0 0 0 0 0 0 0 0 0 0 0 0 0 0 0 0 0 0 0 0 0 0 0 0 0 0 0 0 0 0 0 0 0 0 0 0 0 0 0 0 0 0 0
0 0 0 0 0 0 0 0 0 0 0 0 0 0 0 0 0 0 0 0 0 0 0 0 0 0 0 0 0 0 0 0 0 0 0 0 0 0 0 0 0 0 0
0 0 0 0 0 0 0 0 0 0 0 0 0 0 0 0 0 0 0 0 0 0 0 0 0 0 0 0 0 0 0 0 0 0 0 0 0 0 0 0 0 0 0
0 0 0 0 0 0 0 0 0 0 0 0 0 0 0 0 0 0 0 0 0 0 0 0 0 0 0 0 0 0 0 0 0 0 0 0 0 0 0 0 0 0 0
0 0 0 0 0 0 0 0 0 0 0 0 0 0 0 0 0 0 0 0 0 0 0 0 0 0 0 0 0 0 0 0 0 0 0 0 0 0 0 0 0 0 0
0 0 0 0 0 0 0 0 0 0 0 0 0 0 0 0 0 0 0 0 0 0 0 0 0 0 0 0 0 0 0 0 0 0 0 0 0 0 0 0 0 0 0
0 0 0 0 0 0 0 0 0 0 0 0 0 0 0 0 0 0 0 0 0 0 0 0 0 0 0 0 0 0 0 0 0 0 0 0 0 0 0 0 0 0 0
0 0 0 0 0 0 0 0 0 0 0 0 0 0 0 0 0 0 0 0 0 0 0 0 0 0 0 0 0 0 0 0 0 0 0 0 0 0 0 0 0 0 0
0 0 0 0 0 0 0 0 0 0 0 0 0 0 0 0 0 0 0 0 0 0 0 0 0 0 0 0 0 0 0 0 0 0 0 0 0 0 0 0 0 0 0
0 0 0 0 0 0 0 0 0 0 0 0 0 0 0 0 0 0 0 0 0 0 0 0 0 0 0 0 0 0 0 0 0 0 0 0 0 0 0 0 0 0 0
0 0 0 0 0 0 0 0 0 0 0 0 0 0 0 0 0 0 0 0 0 0 0 0 0 0 0 0 0 0 0 0 0 0 0 0 0 0 0 0 0 0 0
0 0 0 0 0 0 0 0 0 0 0 0 0 0 0 0 0 0 0 0 0 0 0 0 0 0 0 0 0 0 0 0 0 0 0 0 0 0 0 0 0 0 0
Wind_Speed
8 9 9 10 10 8 8 7 8 6 5 4 4 5 5 4 5 6 7 7 7 7 6 5 5 4 4 3 3 2 2 2 2 3 4 3 3 2 1 1 3 4 5
8 9 9 8 9 9 8 8 8 6 5 4 4 4 5 5 4 4 6 7 7 6 6 5 4 4 3 4 4 3 2 2 2 2 3 4 3 2 2 3 3 4 5
11 10 10 10 9 9 8 9 8 8 8 7 6 5 4 4 4 4 4 6 6 6 5 5 4 4 3 2 2 2 2 2 2 1 2 3 4 4 3 3 4 5 6
10 10 11 10 10 9 9 10 10 9 8 7 8 7 5 3 2 2 2 4 5 5 5 5 4 3 2 2 3 2 1 1 2 2 2 3 3 4 5 3 4 7 8
12 12 11 11 11 9 9 9 10 9 8 8 7 8 6 4 2 2 3 3 3 4 4 4 4 3 2 3 3 3 2 1 1 2 2 3 3 4 6 8 7 7 8
12 12 12 12 11 9 9 9 10 9 7 8 7 7 7 5 4 2 2 2 2 2 4 3 3 3 2 3 3 2 2 2 2 2 2 3 4 5 6 8 10 10 10
14 14 14 12 11 10 8 8 9 8 6 7 6 5 5 5 4 2 1 1 1 2 3 3 3 2 2 2 1 1 1 1 2 3 3 4 6 6 7 9 10 11 10
13 13 13 11 10 9 8 8 8 7 5 6 5 4 4 3 2 1 1 0 1 2 3 3 3 3 2 1 1 0 1 1 3 5 6 5 6 6 7 7 8 11 10
13 13 11 9 9 8 7 6 7 6 5 4 4 3 2 2 1 0 1 1 2 2 3 3 3 3 2 1 1 1 2 2 3 5 6 6 7 7 7 7 7 8 11
13 12 10 8 7 7 6 5 5 5 4 3 2 2 1 0 0 1 2 2 3 3 4 4 4 4 4 3 3 3 3 4 4 4 7 7 7 7 7 7 7 8 9
14 12 9 8 7 7 5 4 4 3 3 2 1 0 1 1 1 2 2 3 3 4 4 5 5 6 6 5 5 6 5 6 6 7 8 11 11 9 8 8 8 8 8
14 12 11 10 8 7 5 4 3 2 2 1 1 1 2 2 2 3 3 4 4 5 5 5 6 7 7 6 7 8 6 6 8 9 10 12 11 12 10 9 9 9 9
16 13 11 10 9 7 6 5 4 3 1 1 1 2 2 2 3 4 4 5 5 5 6 6 6 7 8 7 7 6 6 7 8 10 12 14 14 13 11 11 10 9 9
17 15 12 10 9 8 6 4 3 2 1 1 2 2 3 3 4 5 5 6 5 6 7 6 7 7 7 7 6 5 6 8 9 11 12 14 14 14 13 12 12 10 8
19 17 14 11 9 7 5 4 3 2 2 2 2 3 4 4 5 6 6 6 6 7 6 6 6 5 4 4 3 4 7 9 12 13 14 13 17 19 15 11 9 9 8
19 17 14 12 10 8 6 4 3 3 2 3 3 4 4 5 6 6 6 7 6 6 5 4 5 4 3 5 8 10 9 11 13 14 14 14 15 16 18 19 18 16 12
18 16 14 12 9 7 5 5 3 3 2 3 4 5 5 6 7 7 7 6 5 4 4 4 4 4 5 8 11 16 13 12 13 13 12 11 12 15 12 14 18 17 20
15 13 11 9 6 5 4 3 2 2 2 3 5 5 5 6 6 6 6 5 4 4 4 5 5 5 6 11 13 18 12 12 12 12 13 13 13 12 13 12 12 14 14
11 10 8 7 6 5 4 3 2 0 2 3 5 5 5 4 5 6 6 6 5 6 6 5 6 6 8 12 15 17 10 10 13 12 12 12 12 15 16 13 12 14 12
11 9 8 6 5 4 3 4 1 1 3 4 4 4 4 5 7 7 6 5 5 6 6 6 6 7 8 12 15 17 8 10 11 11 11 14 13 15 16 12 10 12 11
11 9 7 5 4 3 3 3 2 3 3 3 4 6 6 7 7 6 5 6 6 6 7 7 7 8 9 11 14 17 10 9 10 9 9 8 14 17 17 14 9 10 10
10 7 5 4 3 3 3 2 3 3 3 5 6 7 6 6 6 6 6 6 6 7 7 8 9 7 8 10 13 18 18 16 11 9 8 9 16 18 16 10 8 7 3
7 5 5 4 2 1 2 2 3 3 5 7 7 6 7 6 5 5 5 5 6 6 7 8 9 9 8 9 14 16 18 20 12 9 16 18 18 15 9 8 7 4 5
6 4 5 4 2 3 3 3 3 5 7 7 6 5 5 5 5 4 4 4 5 6 7 8 8 8 8 8 9 10 10 13 12 10 13 16 14 10 8 6 6 6 7
4 4 5 4 4 4 5 5 5 7 8 7 5 5 5 5 5 4 3 4 4 5 7 7 7 8 8 11 17 12 10 10 11 12 7 6 7 7 6 6 7 7 7
4 5 5 5 5 6 6 6 6 7 8 6 5 4 4 4 4 5 5 6 6 11 11 10 9 8 10 16 17 18 19 18 18 10 7 7 7 7 7 6 7 7 7
Wind_Direction
120 112 109 107 100 93 97 98 103 104 106 98 92 87 77 65 59 57 52 50 51 54 53 52 46 46 52 43 31 24 18 0 341 335 314 287 272 250 200 345 322 312 313
131 119 108 102 100 101 93 87 84 80 73 79 85 90 96 81 70 56 47 43 47 47 56 52 46 38 40 34 24 22 4 340 4 352 314 319 318 320 316 315 305 315 317
152 135 118 110 103 95 93 93 86 81 76 81 88 86 72 60 44 36 37 33 45 50 49 45 42 30 27 15 357 6 1 317 314 325 294 303 296 309 288 290 303 311 310
154 140 127 116 108 103 100 97 92 86 82 85 92 92 93 87 64 46 39 32 37 40 41 39 34 25 12 358 337 13 344 320 308 314 294 265 277 291 301 288 290 296 297
154 143 131 124 117 114 106 99 94 87 85 88 95 99 99 104 100 66 51 35 20 24 27 30 19 5 350 340 335 342 343 332 299 296 301 295 286 254 277 294 296 293 288
148 136 130 128 121 115 107 104 100 91 88 92 96 109 117 120 111 83 58 25 356 352 3 9 4 348 338 331 328 334 339 335 312 300 287 283 286 289 283 290 296 295 294
148 142 140 138 133 124 116 112 109 103 101 101 100 110 119 122 123 128 104 44 356 328 330 349 341 334 326 329 345 4 357 353 330 307 296 285 278 280 284 288 292 292 293
149 146 144 140 134 127 120 116 112 113 109 106 107 111 118 123 132 138 138 360 305 289 300 328 329 326 333 3 54 52 307 331 321 317 308 298 290 282 277 278 289 293 291
147 143 139 134 129 125 120 120 123 123 122 122 120 116 120 121 113 42 345 320 304 293 316 321 317 311 302 276 231 250 275 295 295 300 301 298 292 286 277 269 264 274 290
142 136 132 127 119 114 109 112 125 132 135 134 136 134 150 157 350 341 328 313 304 302 308 305 295 285 273 259 250 259 265 279 288 292 302 303 299 293 283 272 266 258 268
145 141 133 122 115 110 113 120 126 133 137 140 147 178 281 322 334 322 307 298 293 296 293 289 283 274 266 255 250 257 266 278 292 302 307 307 304 295 288 282 273 265 261
145 141 135 130 126 126 130 131 143 153 164 187 232 274 306 322 323 310 299 293 291 290 285 285 281 277 271 257 249 260 270 282 293 301 305 305 303 294 289 282 277 273 263
145 141 139 139 140 145 150 153 161 173 195 232 265 293 303 304 298 293 290 290 288 289 288 283 278 279 277 267 257 259 275 285 291 297 301 300 298 292 287 283 280 275 272
152 148 147 149 152 155 154 158 172 188 209 239 255 273 280 280 277 277 278 279 279 279 281 280 279 284 287 283 278 279 289 295 297 299 297 294 290 285 283 281 277 276 277
158 157 157 157 152 151 158 171 182 202 225 238 254 266 272 272 271 274 276 277 275 275 277 285 294 305 304 305 312 309 308 307 307 304 299 293 289 285 284 282 281 283 283
162 160 157 154 156 164 170 175 194 221 231 243 259 267 272 275 276 278 280 282 285 288 291 300 315 331 343 356 346 335 318 312 309 305 301 296 292 293 294 294 293 289 287
160 159 156 158 161 163 162 175 199 223 225 247 270 278 282 285 286 290 292 293 296 300 324 354 7 2 345 347 339 330 324 311 304 298 297 295 294 297 289 288 291 290 285
152 148 146 145 139 141 156 174 189 202 243 282 291 296 297 297 304 317 325 336 358 17 21 23 18 0 338 335 328 326 321 305 299 295 291 289 290 288 287 287 285 283 282
130 129 126 125 132 145 157 147 134 178 310 310 313 319 325 334 358 20 29 33 39 34 26 16 5 348 327 322 320 327 315 306 305 300 294 291 286 287 292 294 290 290 290
116 116 114 118 133 143 140 115 87 2 337 331 338 358 24 51 61 61 53 41 41 29 14 3 347 333 320 315 319 326 314 308 308 306 301 298 294 294 299 299 292 290 296
109 112 122 132 138 142 124 90 29 346 335 1 43 56 66 76 76 68 55 44 35 21 6 351 336 326 318 318 323 328 324 312 307 305 306 302 302 304 303 298 284 278 287
113 121 131 127 128 139 111 64 4 350 36 66 71 69 68 75 74 67 52 38 23 11 358 347 341 334 329 327 328 327 325 324 315 310 309 308 310 311 308 304 295 296 300
128 132 134 127 131 136 108 62 14 48 79 80 76 71 69 61 56 53 40 23 10 3 354 351 347 341 338 333 330 328 326 329 329 319 321 322 320 320 319 337 5 45 75
126 127 123 116 90 62 75 78 68 86 89 85 77 67 61 47 33 28 19 7 357 354 352 349 342 336 335 337 337 332 328 330 332 328 322 322 325 336 348 8 44 61 70
110 117 118 108 84 75 71 75 90 95 88 82 75 63 52 41 25 15 356 347 330 336 337 334 332 334 338 333 330 334 335 335 334 330 327 336 345 360 16 41 60 67 72
107 104 100 93 85 87 81 76 85 93 92 79 64 55 49 41 32 16 0 349 350 340 339 334 335 334 330 330 335 339 338 335 335 339 347 353 357 6 22 46 63 68 72